Tracking 29034 objects as of 25-Jun-2024
HD Live streaming from Space Station
objects crossing your sky now

STARLING 2

Track STARLING 2 now!
10-day predictions


NORAD ID: 57387
Int'l Code: 2023-100B
Perigee: 571.1 km
Apogee: 576.1 km
Inclination: 99.5 °
Period: 96.0 minutes
Semi major axis: 6944 km
RCS: Unknown
Launch date: July 18, 2023
Source: United States (US)
Launch site: Rocket Lab Launch Complex (RLLC)
Your satellite tracking list
Your tracking list is empty




NASA's NSSDC Master Catalog

Two Line Element Set (TLE):
1 57387U 23100B   24176.52364810  .00002367  00000-0  19640-3 0  9996
2 57387  99.5020  20.2721 0003560 304.5014  55.5867 15.00143269 51308
Source of the keplerian elements: AFSPC